{"data":{"norad_id":56887,"intl_designator":"2023-083M","name":"STARLINK-6180","alt_names":[],"object_type":"PAYLOAD","status":"ACTIVE","operator":null,"country":"US","launch_date":"2023-06-12","launch_site_code":"AFETR","launch_vehicle":null,"mission":null,"orbit_class":"UNKNOWN","rcs_meters":null,"size_class":null,"mass_kg":null,"dimensions":null,"purposes":["comms"],"wikipedia_slug":null,"has_3d_model":false,"image_url":null,"decayed_at":null,"tle_current":{"epoch":"2026-05-25T00:06:33.615072Z","epoch_age_seconds":74626,"freshness":"FRESH","line1":"1 56887U 23083M   26145.00455573 -.00002273  00000+0 -73109-4 0  9996","line2":"2 56887  43.0020  18.3135 0001173 264.3657  95.7061 15.27581171163254","mean_motion":15.27581171,"eccentricity":0.0001173,"inclination_deg":43.002,"raan_deg":18.3135,"arg_perigee_deg":264.3657,"mean_anomaly_deg":95.7061,"bstar":-7.3109e-5,"rev_number":16325,"period_min":94.26667645146,"perigee_km":482.24077292886,"apogee_km":483.85040636439,"semimajor_km":6861.1825896466,"source":"CELESTRAK","updated_at":"2026-05-25T13:38:18.169011Z"}}}